[[{"header":{"parameterUnit":"m.s-1","parameterCategory":2,"la1":30.2991,"la2":30.254,"lo1":-89.0895,"lo2":-89.0444,"dy":0.0017,"dx":0.0017,"nx":28,"ny":28,"refTime":"2024-03-29T09:00:00:Z","depth":"0","parameterNumber":2,"parameterNumberName":"U-component_of_CURRENTS"},"data":[0,0,0,0,0,0,0,0,0,0,0,0,0,0,0,0,0,0,0,0,0,0,0,0,0,0,0,0,0,0,0,0,0,0,0,0,0,0,0,0,0,0,0,0,0,0,0,0,0,0,0,0,0,0,0,0,0,0,0.3028,0.3028,0,0.3049,0.3049,0.3049,0.3033,0.3033,0.3032,0.3032,0.3034,0.3035,0.3035,0,0,0,0,0,0,0,0,0,0,0,0,0,0.2996,0.2997,0.3028,0.3028,0.3029,0.3049,0.3049,0.3049,0.3033,0.3033,0.3032,0.3032,0.3034,0.3035,0.3035,0,0,0,0,0,0,0,0,0,0,0,0,0,0.3011,0.2997,0.3028,0.3025,0.3025,0.3049,0.3049,0.3049,0.3034,0.3033,0.3032,0.3031,0.3034,0.3034,0.3035,0.3054,0,0,0.3038,0.3038,0,0,0,0,0,0,0,0,0.301,0.3012,0.3025,0.3025,0.3026,0.304,0.3039,0.3051,0.3034,0.3028,0.3032,0.3031,0.3036,0.3037,0.3039,0.3054,0.3054,0.3038,0.3038,0.3038,0.3039,0,0,0,0,0,0,0,0.3009,0.3011,0.3034,0.3026,0.3026,0.3031,0.3032,0.3041,0.3034,0.3028,0.3028,0.3034,0.3036,0.3039,0.3039,0.3054,0.3038,0.3038,0.3039,0.3039,0.3111,0.3113,0,0,0,0,0,0,0.3011,0.301,0.3033,0.3035,0.3019,0.3032,0.3033,0.3034,0.3034,0.3034,0.3035,0.3034,0.3038,0.3038,0.3039,0.3074,0.3038,0.3039,0.304,0.311,0.3111,0.3113,0,0,0,0,0,0,0.301,0.3012,0.3032,0.3025,0.3028,0.3034,0.3035,0.3035,0.304,0.304,0.3039,0.3041,0.3037,0.3038,0.3055,0.3073,0.3039,0.304,0.3108,0.311,0.3112,0.3135,0,0,0,0,0,0,0.3009,0.3012,0.3014,0.3025,0.3029,0.3048,0.3036,0.3036,0.3046,0.3045,0.3044,0.3044,0.3037,0.3054,0.3055,0.3073,0.3041,0.3106,0.3109,0.3112,0.3132,0.3137,0.3142,0,0,0,0,0,0.3008,0.3009,0.3014,0.3017,0.3031,0.3049,0.3051,0.3051,0.3047,0.3052,0.3056,0.3044,0.3072,0.3055,0.3057,0.3076,0.3105,0.3108,0.3111,0.313,0.3136,0.3142,0,0,0,0,0,0,0.2993,0.3009,0.3013,0.3019,0.3036,0.3047,0.3053,0.3057,0.3065,0.3063,0.3058,0.3058,0.3084,0.3081,0.3062,0.3108,0.3089,0.3093,0.3102,0.3109,0.3113,0.314,0.3041,0,0,0,0,0,0.2994,0.3,0.3019,0.3024,0.3034,0.3047,0.3055,0.3059,0.3068,0.307,0.3071,0.308,0.3101,0.3103,0.3118,0.3137,0.3169,0.3153,0.3158,0.3162,0.3187,0.3244,0.3257,0.3124,0.3124,0.3124,0,0,0.2989,0.3,0.3002,0.3023,0.3034,0.3055,0.3049,0.3064,0.3087,0.3071,0.3094,0.3099,0.3113,0.3137,0.3148,0.3133,0.322,0.3167,0.317,0.3193,0.3249,0.3262,0.3274,0.3126,0.3126,0.3125,0,0,0.2986,0.2995,0.3001,0.3022,0.3047,0.306,0.3068,0.3086,0.3098,0.3119,0.3125,0.3146,0.3154,0.3179,0.3191,0.3236,0.3249,0.3234,0.3271,0.3326,0.3337,0.3348,0.3414,0.343,0.3229,0.3229,0.3229,0,0.2982,0.2991,0.3007,0.3027,0.3041,0.3066,0.308,0.311,0.3131,0.3141,0.3127,0.3174,0.3181,0.3235,0.3255,0.3248,0.3284,0.3241,0.3332,0.3343,0.3354,0.3419,0.3436,0.323,0.323,0.323,0.323,0,0.2988,0.3001,0.3009,0.3042,0.3062,0.3078,0.3121,0.3142,0.3151,0.317,0.3213,0.3235,0.3258,0.3269,0.3276,0.3357,0.3362,0.3335,0.3314,0.3368,0.3434,0.3452,0.3233,0.3232,0.3232,0.3231,0,0,0.2962,0.3002,0.3007,0.3019,0.3067,0.3081,0.313,0.3167,0.3212,0.3224,0.3281,0.3312,0.3319,0.3339,0.3356,0.3414,0.352,0.341,0.3412,0.3473,0.3658,0.3602,0.3617,0.3503,0.3506,0.3508,0.3677,0,0.296,0.2986,0.301,0.3039,0.3054,0.3093,0.3142,0.3185,0.3228,0.3298,0.3329,0.3396,0.335,0.3389,0.3427,0.3522,0.3568,0.3478,0.3602,0.3606,0.3546,0.3635,0.3459,0.3589,0.3694,0.3697,0.37,0,0.2955,0.2974,0.2992,0.3036,0.3048,0.3075,0.3147,0.3201,0.3306,0.3344,0.3394,0.3445,0.3548,0.3507,0.3642,0.3587,0.3624,0.3677,0.3683,0.364,0.3584,0.3552,0.3618,0.3531,0.3727,0.3725,0.3723,0,0.2917,0.2957,0.2964,0.2981,0.3045,0.306,0.3104,0.3199,0.3276,0.3405,0.3486,0.356,0.3659,0.3703,0.3779,0.3731,0.3942,0.3877,0.3854,0.3851,0.3733,0.3713,0.3725,0.3964,0.3963,0.3963,0.3962,0,0.2899,0.2907,0.2947,0.2955,0.2997,0.3041,0.312,0.3184,0.3321,0.3429,0.3515,0.3633,0.372,0.3833,0.3848,0.3921,0.3978,0.3901,0.39,0.3735,0.3715,0.3656,0.3602,0.3969,0.3968,0.3966,0.3965,0,0.2865,0.2883,0.2906,0.2958,0.298,0.3016,0.314,0.3214,0.3343,0.3504,0.3563,0.3746,0.389,0.3959,0.4091,0.4033,0.3983,0.4092,0.3902,0.3875,0.3729,0.3682,0.36,0.3497,0.4104,0.4104,0.4104,0,0.2852,0.2857,0.2911,0.2943,0.2968,0.3036,0.3098,0.3214,0.33,0.3558,0.3634,0.3853,0.3957,0.4133,0.4102,0.4129,0.3999,0.3977,0.3836,0.3734,0.3682,0.3536,0.3444,0.3702,0.3698,0.3695,0.3693,0,0.2858,0.2874,0.2911,0.2958,0.3006,0.3061,0.3145,0.321,0.3364,0.3501,0.3688,0.381,0.3986,0.3954,0.4001,0.3979,0.3771,0.3918,0.3858,0.3421,0.3217,0.3112,0.3597,0.3668,0.367,0.3672,0.3673,0.3674,0.2893,0.2915,0.2959,0.2988,0.3038,0.3053,0.3063,0.3157,0.3264,0.3399,0.3603,0.3693,0.3778,0.3818,0.379,0.3633,0.361,0.3489,0.3465,0.3346,0.3156,0.3597,0.3625,0.3628,0.363,0.3631,0.3633,0,0.2929,0.2945,0.2987,0.3004,0.3007,0.3031,0.3072,0.3048,0.3093,0.3236,0.3359,0.3424,0.3402,0.3435,0.3355,0.3204,0.3036,0.3102,0.2852,0.2802,0.3248,0.3137,0.3002,0.3002,0.3002,0.3002,0.3002,0.3002,0.2966,0.2985,0.2967,0.295,0.2951,0.2888,0.2867,0.2842,0.2876,0.2887,0.29,0.2995,0.3133,0.3119,0.2981,0.2904,0.2684,0.2517,0.255,0.2863,0.2896,0.2927,0.2812,0.2611,0.261,0.1966,0.1961,0.1957]},{"header":{"parameterUnit":"m.s-1","parameterCategory":2,"la1":30.2991,"la2":30.254,"lo1":-89.0895,"lo2":-89.0444,"dy":0.0017,"dx":0.0017,"nx":28,"ny":28,"refTime":"2024-03-29T09:00:00:Z","depth":"0","parameterNumber":3,"parameterNumberName":"V-component_of_CURRENTS"},"data":[0,0,0,0,0,0,0,0,0,0,0,0,0,0,0,0,0,0,0,0,0,0,0,0,0,0,0,0,0,0,0,0,0,0,0,0,0,0,0,0,0,0,0,0,0,0,0,0,0,0,0,0,0,0,0,0,0,0,0.0364,0.0364,0,0.0316,0.0315,0.0314,0.0274,0.0274,0.0274,0.0274,0.0203,0.0201,0.0199,0,0,0,0,0,0,0,0,0,0,0,0,0,0.0353,0.0354,0.0364,0.0364,0.0363,0.0316,0.0315,0.0314,0.0274,0.0274,0.0274,0.0274,0.0203,0.0201,0.0199,0,0,0,0,0,0,0,0,0,0,0,0,0,0.0334,0.0354,0.0364,0.034,0.0337,0.0316,0.0315,0.0314,0.0274,0.0274,0.0274,0.0273,0.0204,0.0201,0.0199,0.0189,0,0,0.0191,0.019,0,0,0,0,0,0,0,0,0.0336,0.0334,0.0343,0.0341,0.0338,0.0303,0.0285,0.0272,0.0274,0.0295,0.0274,0.0273,0.0236,0.0231,0.0219,0.0185,0.0182,0.0191,0.0189,0.0188,0.0187,0,0,0,0,0,0,0,0.0337,0.0336,0.0342,0.0343,0.034,0.0308,0.0305,0.0282,0.0265,0.0293,0.0291,0.029,0.0234,0.0222,0.0217,0.0181,0.0191,0.0188,0.0187,0.0186,0.015,0.0151,0,0,0,0,0,0,0.0352,0.0338,0.0344,0.0341,0.0339,0.0309,0.0306,0.0313,0.0266,0.026,0.029,0.0288,0.0226,0.022,0.0214,0.0222,0.0188,0.0186,0.0184,0.015,0.0151,0.0151,0,0,0,0,0,0,0.0352,0.0354,0.0346,0.034,0.0337,0.031,0.0318,0.0312,0.0304,0.0264,0.0257,0.029,0.0226,0.0218,0.0203,0.0218,0.0184,0.0182,0.0149,0.015,0.0151,0.0224,0,0,0,0,0,0,0.0352,0.0354,0.0363,0.0341,0.0338,0.0345,0.0318,0.0311,0.0305,0.0302,0.0261,0.0254,0.0225,0.0208,0.0201,0.0214,0.018,0.0148,0.015,0.0151,0.0221,0.0227,0.0233,0,0,0,0,0,0.0352,0.037,0.0364,0.0364,0.0352,0.0346,0.0341,0.0319,0.0306,0.0309,0.0281,0.0256,0.021,0.0206,0.0198,0.0211,0.0148,0.0149,0.0151,0.0218,0.0226,0.0233,0,0,0,0,0,0,0.0364,0.0367,0.036,0.0375,0.0367,0.0341,0.034,0.0326,0.0306,0.0302,0.0262,0.0253,0.0245,0.0219,0.0216,0.0204,0.0175,0.0175,0.0229,0.0236,0.0242,0.026,0.0178,0,0,0,0,0,0.0374,0.039,0.038,0.0391,0.039,0.0366,0.0361,0.0348,0.0329,0.0319,0.0292,0.0264,0.0243,0.0233,0.0208,0.0204,0.018,0.0207,0.0213,0.0218,0.0227,0.0205,0.021,0.0156,0.0156,0.0156,0,0,0.0379,0.0384,0.0391,0.0395,0.0383,0.0394,0.0362,0.036,0.0371,0.0315,0.0316,0.0282,0.0246,0.024,0.0234,0.0221,0.0221,0.022,0.0225,0.0231,0.0207,0.0212,0.0217,0.0157,0.0156,0.0156,0,0,0.0405,0.0405,0.0429,0.0429,0.0426,0.0414,0.0419,0.0401,0.0395,0.039,0.0355,0.0335,0.0301,0.0282,0.0268,0.0292,0.0252,0.0282,0.0329,0.0308,0.0312,0.0316,0.0295,0.0296,0.0287,0.0288,0.0288,0,0.041,0.0445,0.0432,0.0454,0.0461,0.043,0.0454,0.0445,0.0425,0.0428,0.0401,0.0358,0.0323,0.0324,0.0329,0.0307,0.0286,0.0306,0.0316,0.0319,0.0322,0.03,0.03,0.0291,0.0291,0.029,0.029,0,0.0457,0.0483,0.0495,0.0518,0.0519,0.0535,0.0524,0.053,0.0513,0.0497,0.0489,0.0439,0.0416,0.04,0.0369,0.0374,0.0351,0.0325,0.0301,0.0332,0.0306,0.0306,0.0296,0.0295,0.0294,0.0293,0,0,0.0475,0.0522,0.0527,0.0556,0.0558,0.0569,0.059,0.0603,0.0631,0.0587,0.0617,0.0557,0.0521,0.0502,0.046,0.0438,0.0431,0.0393,0.039,0.0379,0.0384,0.0363,0.036,0.0405,0.0405,0.0405,0.0361,0,0.0517,0.0588,0.059,0.0644,0.0679,0.0666,0.0696,0.0699,0.0689,0.0709,0.0652,0.0655,0.0564,0.0565,0.0521,0.0466,0.0431,0.0446,0.0351,0.0348,0.0331,0.0359,0.0365,0.0325,0.036,0.0359,0.0359,0,0.0563,0.0611,0.0681,0.0738,0.075,0.0772,0.0819,0.0845,0.0854,0.085,0.082,0.0775,0.0741,0.0665,0.0557,0.0569,0.0479,0.0421,0.0417,0.0373,0.0326,0.0298,0.0322,0.0207,0.0357,0.0357,0.0358,0,0.0602,0.0669,0.0734,0.0751,0.0808,0.0838,0.0867,0.0887,0.0945,0.0949,0.0995,0.0901,0.091,0.0768,0.0624,0.0596,0.051,0.0457,0.0346,0.0344,0.0318,0.0313,0.0225,0.0373,0.0374,0.0374,0.0374,0,0.0654,0.0704,0.0763,0.0803,0.0897,0.0898,0.0994,0.1014,0.1071,0.1171,0.1076,0.1144,0.094,0.0863,0.0681,0.0522,0.0546,0.0364,0.0335,0.0344,0.0342,0.0215,0.0112,0.0372,0.0372,0.0373,0.0373,0,0.0692,0.0727,0.0815,0.089,0.0924,0.0992,0.1109,0.1186,0.1223,0.1359,0.138,0.1349,0.1251,0.1024,0.0827,0.0639,0.0377,0.0391,0.0414,0.0388,0.0165,0.0065,-0.008,-0.0141,0.0263,0.0262,0.0262,0,0.0724,0.0776,0.089,0.0965,0.1006,0.1113,0.1206,0.1265,0.1363,0.1504,0.1589,0.1545,0.1533,0.1218,0.0871,0.0543,0.0383,0.0339,0.0275,0.0165,0.0032,-0.0027,-0.0071,0.0268,0.0268,0.0268,0.0267,0,0.0806,0.084,0.0924,0.107,0.1175,0.1306,0.1436,0.1539,0.1645,0.1772,0.1922,0.1929,0.1641,0.1325,0.0867,0.0633,0.0246,0.032,0.0201,0.0027,-0.0038,-0.0113,0.0284,0.0264,0.0264,0.0264,0.0264,0.0265,0.088,0.0952,0.1062,0.1193,0.1324,0.1481,0.1599,0.1756,0.1944,0.2136,0.2142,0.2172,0.1727,0.1109,0.0794,0.0243,0.0218,0.0073,-0.0038,-0.0084,-0.0147,0.0245,0.0192,0.0192,0.0192,0.0192,0.0192,0,0.0972,0.1053,0.1183,0.1343,0.148,0.1533,0.1747,0.1881,0.2115,0.2266,0.238,0.2156,0.1613,0.1061,0.0304,-0.0049,-0.0171,-0.0236,-0.0316,-0.0345,0.0009,0.0007,-0.0081,-0.0081,-0.0081,-0.0081,-0.008,-0.008,0.1037,0.116,0.1209,0.1438,0.1555,0.175,0.1873,0.2085,0.2226,0.2409,0.2405,0.236,0.1926,0.0645,-0.0193,-0.0383,-0.0579,-0.0652,-0.0753,-0.0514,-0.0492,-0.0472,-0.0494,-0.0685,-0.0686,-0.1028,-0.1032,-0.1035]}],[{"header":{"parameterUnit":"m.s-1","parameterCategory":2,"la1":30.2991,"la2":30.254,"lo1":-89.0895,"lo2":-89.0444,"dy":0.0017,"dx":0.0017,"nx":28,"ny":28,"refTime":"2024-03-29T09:00:00:Z","depth":"2","parameterNumber":2,"parameterNumberName":"U-component_of_CURRENTS"},"data":[0,0,0,0,0,0,0,0,0,0,0,0,0,0,0,0,0,0,0,0,0,0,0,0,0,0,0,0,0,0,0,0,0,0,0,0,0,0,0,0,0,0,0,0,0,0,0,0,0,0,0,0,0,0,0,0,0,0,0.2704,0.2705,0,0.2729,0.2729,0.2729,0.2726,0.2726,0.2725,0.2725,0.2739,0.2739,0.274,0,0,0,0,0,0,0,0,0,0,0,0,0,0.2672,0.2672,0.2704,0.2705,0.2705,0.2729,0.2729,0.2729,0.2726,0.2726,0.2725,0.2725,0.2739,0.2739,0.274,0,0,0,0,0,0,0,0,0,0,0,0,0,0.2688,0.2672,0.2704,0.2709,0.2709,0.2729,0.2729,0.2729,0.2726,0.2726,0.2725,0.2725,0.2738,0.2739,0.274,0.2749,0,0,0.2742,0.2742,0,0,0,0,0,0,0,0,0.2687,0.2688,0.2707,0.2708,0.2709,0.2726,0.2722,0.2736,0.2726,0.2717,0.2725,0.2725,0.2735,0.2736,0.2738,0.275,0.275,0.2742,0.2743,0.2743,0.2743,0,0,0,0,0,0,0,0.2686,0.2688,0.2711,0.2708,0.2709,0.2715,0.2717,0.2725,0.2725,0.2718,0.2718,0.2725,0.2735,0.2737,0.2738,0.2751,0.2742,0.2743,0.2743,0.2744,0.2816,0.2818,0,0,0,0,0,0,0.2687,0.2686,0.2711,0.2712,0.27,0.2716,0.2718,0.2719,0.2725,0.2727,0.2725,0.2725,0.2736,0.2737,0.2739,0.2781,0.2743,0.2744,0.2744,0.2815,0.2817,0.2818,0,0,0,0,0,0,0.2686,0.2689,0.271,0.2702,0.2706,0.2717,0.2718,0.272,0.2731,0.2731,0.2732,0.2737,0.2736,0.2738,0.276,0.278,0.2744,0.2745,0.2813,0.2815,0.2817,0.2846,0,0,0,0,0,0,0.2685,0.2688,0.2693,0.2702,0.2706,0.2727,0.2719,0.272,0.2736,0.2736,0.2742,0.2742,0.2736,0.2759,0.2761,0.2781,0.2745,0.2811,0.2814,0.2817,0.2844,0.2849,0.2854,0,0,0,0,0,0.2684,0.2686,0.2693,0.2696,0.2711,0.2728,0.2731,0.2736,0.2737,0.2745,0.2754,0.2742,0.2778,0.2761,0.2762,0.2783,0.281,0.2813,0.2816,0.2841,0.2848,0.2854,0,0,0,0,0,0,0.2673,0.2687,0.2694,0.2701,0.2719,0.2729,0.2738,0.2745,0.2757,0.276,0.2757,0.2759,0.2789,0.2786,0.2767,0.2815,0.2794,0.2798,0.2812,0.2819,0.2824,0.2846,0.2746,0,0,0,0,0,0.2675,0.2681,0.2699,0.2707,0.2717,0.2731,0.2741,0.2748,0.2761,0.2766,0.2772,0.2784,0.2803,0.281,0.2823,0.2845,0.2869,0.2863,0.2868,0.2873,0.2894,0.2941,0.2952,0.2829,0.2829,0.2829,0,0,0.2672,0.2682,0.2685,0.2706,0.2719,0.274,0.2736,0.2755,0.278,0.2766,0.2798,0.2804,0.2816,0.2843,0.2856,0.2841,0.2922,0.2877,0.288,0.29,0.2945,0.2957,0.2968,0.2831,0.2831,0.2831,0,0,0.267,0.2682,0.2688,0.2709,0.2737,0.275,0.2761,0.2781,0.2797,0.2823,0.283,0.2855,0.2867,0.289,0.29,0.2947,0.2952,0.2946,0.2986,0.303,0.304,0.305,0.3102,0.3115,0.2944,0.2944,0.2944,0,0.2669,0.2678,0.2694,0.2714,0.2731,0.2758,0.2775,0.2805,0.2832,0.2845,0.2836,0.2885,0.2894,0.2944,0.2966,0.2959,0.2987,0.2954,0.3037,0.3047,0.3056,0.3106,0.3121,0.2946,0.2946,0.2945,0.2945,0,0.2675,0.2691,0.2699,0.2733,0.2754,0.2774,0.2817,0.2844,0.286,0.288,0.2927,0.2948,0.2974,0.2985,0.2991,0.3064,0.3064,0.3039,0.3017,0.307,0.312,0.3135,0.2948,0.2948,0.2947,0.2947,0,0,0.2648,0.2692,0.2697,0.2713,0.2764,0.2779,0.2831,0.2871,0.2916,0.2937,0.2989,0.3026,0.3038,0.3055,0.3071,0.3119,0.3212,0.3114,0.3115,0.3161,0.3323,0.3252,0.3261,0.3196,0.3198,0.32,0.3334,0,0.2647,0.2675,0.27,0.2735,0.2752,0.2796,0.2846,0.2892,0.2936,0.3001,0.3034,0.3097,0.3067,0.3103,0.3138,0.3211,0.3252,0.3179,0.327,0.3274,0.32,0.3276,0.2996,0.3084,0.3349,0.3351,0.3353,0,0.2641,0.2662,0.2686,0.2736,0.2749,0.2781,0.2855,0.2909,0.3008,0.3046,0.3098,0.3143,0.3237,0.3204,0.332,0.3275,0.3305,0.3344,0.3349,0.3285,0.323,0.3075,0.3102,0.3378,0.3376,0.3374,0.3372,0,0.2604,0.2649,0.2663,0.2682,0.275,0.2773,0.2819,0.2912,0.2978,0.3101,0.3166,0.3242,0.3324,0.3367,0.3432,0.3393,0.3562,0.3507,0.3465,0.346,0.3243,0.3214,0.3581,0.3581,0.3581,0.358,0.358,0,0.2585,0.2599,0.2649,0.2662,0.2702,0.2757,0.283,0.2895,0.3019,0.3107,0.3195,0.3282,0.3373,0.3466,0.3485,0.3533,0.3593,0.3504,0.3497,0.3245,0.3217,0.348,0.3467,0.3585,0.3584,0.3583,0.3582,0,0.2545,0.2575,0.26,0.2662,0.2686,0.2721,0.2836,0.2897,0.3025,0.3155,0.3208,0.3358,0.3477,0.3552,0.3664,0.3612,0.3662,0.3652,0.336,0.3316,0.3519,0.3505,0.3631,0.363,0.3628,0.3628,0.3627,0,0.2524,0.2532,0.2593,0.2618,0.2647,0.2714,0.2765,0.2886,0.2958,0.318,0.3233,0.3416,0.3489,0.363,0.3603,0.3635,0.3683,0.3376,0.324,0.3547,0.3528,0.3516,0.3505,0.2972,0.2966,0.2961,0.2957,0,0.2495,0.2518,0.2549,0.2594,0.2637,0.2682,0.2762,0.2812,0.2967,0.3078,0.3213,0.3304,0.3448,0.3352,0.3408,0.3371,0.3347,0.3276,0.3689,0.2997,0.2934,0.2913,0.2921,0.2913,0.2917,0.292,0.2923,0.2925,0.248,0.2496,0.2536,0.2562,0.261,0.262,0.2617,0.2706,0.2787,0.2896,0.306,0.31,0.3152,0.309,0.3004,0.2935,0.3153,0.299,0.3002,0.3019,0.2913,0.2851,0.2796,0.28,0.2803,0.2806,0.2808,0,0.2447,0.2467,0.2499,0.2506,0.2491,0.2555,0.2589,0.2552,0.257,0.2705,0.2785,0.2604,0.2562,0.2616,0.2443,0.2439,0.2375,0.2335,0.222,0.2268,0.231,0.2162,0.1849,0.1845,0.1842,0.1839,0,0,0.244,0.2435,0.2432,0.2369,0.2379,0.2328,0.2315,0.228,0.232,0.2286,0.229,0.2487,0.2573,0.2195,0.2137,0.1964,0.2097,0.1887,0.2665,0.2581,0.2618,0.2705,0.2536,0,0,0,0,0]},{"header":{"parameterUnit":"m.s-1","parameterCategory":2,"la1":30.2991,"la2":30.254,"lo1":-89.0895,"lo2":-89.0444,"dy":0.0017,"dx":0.0017,"nx":28,"ny":28,"refTime":"2024-03-29T09:00:00:Z","depth":"2","parameterNumber":3,"parameterNumberName":"V-component_of_CURRENTS"},"data":[0,0,0,0,0,0,0,0,0,0,0,0,0,0,0,0,0,0,0,0,0,0,0,0,0,0,0,0,0,0,0,0,0,0,0,0,0,0,0,0,0,0,0,0,0,0,0,0,0,0,0,0,0,0,0,0,0,0,0.0169,0.0168,0,0.0124,0.0124,0.0123,0.009,0.0089,0.0089,0.0089,0.0024,0.0022,0.0021,0,0,0,0,0,0,0,0,0,0,0,0,0,0.0162,0.0162,0.0169,0.0168,0.0168,0.0125,0.0124,0.0123,0.009,0.0089,0.0089,0.0089,0.0024,0.0022,0.002,0,0,0,0,0,0,0,0,0,0,0,0,0,0.0144,0.0162,0.0169,0.0148,0.0146,0.0125,0.0124,0.0123,0.009,0.0089,0.0089,0.0089,0.0025,0.0023,0.002,0.0008,0,0,0.0013,0.0012,0,0,0,0,0,0,0,0,0.0145,0.0144,0.0151,0.0149,0.0147,0.0114,0.0097,0.0084,0.009,0.0108,0.0089,0.0089,0.0054,0.0049,0.0038,0.0005,0.0002,0.0012,0.0011,0.001,0.0009,0,0,0,0,0,0,0,0.0146,0.0145,0.0149,0.0151,0.0148,0.0119,0.0117,0.0094,0.008,0.0107,0.0105,0.0104,0.0052,0.004,0.0036,0.0001,0.0012,0.001,0.0009,0.0008,-0.003,-0.003,0,0,0,0,0,0,0.016,0.0147,0.015,0.0148,0.0148,0.012,0.0117,0.0123,0.0081,0.0075,0.0104,0.0102,0.0045,0.0039,0.0034,0.0041,0.001,0.0007,0.0006,-0.0031,-0.003,-0.003,0,0,0,0,0,0,0.016,0.0161,0.0152,0.0147,0.0145,0.0121,0.0127,0.0122,0.0117,0.0079,0.0073,0.0105,0.0044,0.0037,0.0024,0.0038,0.0006,0.0004,-0.0031,-0.0031,-0.003,0.004,0,0,0,0,0,0,0.016,0.0162,0.017,0.0149,0.0146,0.0152,0.0128,0.0122,0.0117,0.0115,0.0078,0.0071,0.0044,0.0028,0.0022,0.0034,0.0002,-0.0032,-0.0031,-0.003,0.0037,0.0043,0.0048,0,0,0,0,0,0.016,0.0176,0.0171,0.0171,0.0158,0.0152,0.0148,0.0128,0.0118,0.0122,0.0097,0.0073,0.0029,0.0027,0.0019,0.003,-0.0032,-0.0031,-0.003,0.0035,0.0042,0.0048,0,0,0,0,0,0,0.0173,0.0174,0.0167,0.0181,0.0173,0.0148,0.0149,0.0136,0.0119,0.0116,0.0079,0.0071,0.0063,0.0037,0.0036,0.0021,-0.0006,-0.0006,0.0046,0.0053,0.0058,0.0077,0.0,0,0,0,0,0,0.0182,0.0196,0.0186,0.0196,0.0195,0.0173,0.0168,0.0157,0.014,0.0132,0.0107,0.008,0.006,0.0051,0.0026,0.002,-0.0006,0.0022,0.0028,0.0032,0.0042,0.0016,0.002,-0.0026,-0.0026,-0.0026,0,0,0.0188,0.0191,0.0197,0.02,0.0189,0.0199,0.0169,0.017,0.0179,0.0127,0.013,0.0098,0.0062,0.0055,0.005,0.0037,0.0031,0.0034,0.0038,0.0045,0.0017,0.0022,0.0026,-0.0025,-0.0026,-0.0026,0,0,0.0212,0.0212,0.0233,0.0233,0.023,0.0219,0.0225,0.0208,0.0204,0.02,0.0166,0.0148,0.0115,0.0096,0.0081,0.0103,0.006,0.0091,0.0136,0.0111,0.0114,0.0117,0.009,0.009,0.0096,0.0096,0.0096,0,0.0218,0.0249,0.0236,0.0256,0.0263,0.0235,0.0258,0.0249,0.0231,0.0233,0.0211,0.0168,0.0137,0.0132,0.0138,0.0117,0.0092,0.0115,0.0119,0.0121,0.0123,0.0094,0.0093,0.0099,0.0099,0.0099,0.0098,0,0.026,0.0284,0.0296,0.0316,0.0317,0.0333,0.0323,0.0329,0.0315,0.0299,0.029,0.0243,0.0221,0.0204,0.0177,0.0178,0.0152,0.0128,0.0105,0.0132,0.01,0.0097,0.0104,0.0103,0.0102,0.0101,0,0,0.0277,0.032,0.0325,0.0351,0.0355,0.0364,0.0384,0.0395,0.0417,0.038,0.04,0.035,0.0318,0.0299,0.0259,0.0234,0.0222,0.0192,0.0189,0.0171,0.0163,0.0134,0.0129,0.0197,0.0197,0.0197,0.0135,0,0.0316,0.038,0.0383,0.0433,0.0464,0.0453,0.048,0.0482,0.047,0.0481,0.0429,0.0425,0.0356,0.0353,0.0314,0.0253,0.022,0.0241,0.0134,0.0131,0.0108,0.0127,0.0144,0.009,0.0133,0.0132,0.0132,0,0.0357,0.0401,0.0464,0.0515,0.0527,0.0548,0.0586,0.0608,0.0609,0.0601,0.0573,0.0528,0.0494,0.0433,0.0328,0.0343,0.0261,0.0201,0.0196,0.0145,0.0099,0.0069,0.0084,0.0128,0.0128,0.0128,0.0129,0,0.0391,0.0453,0.0512,0.0528,0.0579,0.0606,0.0632,0.0645,0.0687,0.0683,0.0707,0.0629,0.062,0.0502,0.0369,0.0352,0.025,0.021,0.0101,0.0097,0.008,0.0075,0.0132,0.0132,0.0132,0.0133,0.0133,0,0.0437,0.0483,0.0537,0.0573,0.0652,0.0659,0.0736,0.0751,0.0791,0.0857,0.0775,0.0801,0.0639,0.0556,0.0409,0.0254,0.0276,0.0115,0.0083,0.0104,0.0102,0.0108,0.0106,0.013,0.0131,0.0131,0.0132,0,0.0466,0.0503,0.0578,0.0646,0.0675,0.0731,0.0826,0.0884,0.0908,0.0996,0.1008,0.0945,0.0838,0.0657,0.0478,0.0327,0.017,0.0104,0.0138,0.0111,0.0021,0.0023,-0.002,-0.0022,-0.0023,-0.0024,-0.0025,0,0.0489,0.0532,0.0633,0.0692,0.0728,0.0818,0.0892,0.0945,0.1014,0.1089,0.1138,0.1066,0.1026,0.0737,0.0466,0.0207,0.0168,0.0039,0.0004,0.0034,0.0007,0.0011,0.0015,0.0006,0.0006,0.0005,0.0005,0,0.0532,0.0565,0.0634,0.0759,0.0844,0.0952,0.1057,0.1133,0.1216,0.129,0.1353,0.1329,0.1068,0.0806,0.0446,0.026,0.0079,0.0021,0.0053,0.0043,0.0054,0.0029,0.0033,0.0001,0.0001,0.0002,0.0002,0.0002,0.0563,0.062,0.0714,0.0827,0.0935,0.1065,0.1166,0.1284,0.1417,0.1535,0.1497,0.147,0.1172,0.0714,0.0395,0.0056,0.0069,-0.0064,-0.006,-0.0057,-0.0042,-0.0033,-0.01,-0.01,-0.01,-0.01,-0.0101,0,0.0604,0.0673,0.0777,0.0914,0.1024,0.1088,0.1264,0.137,0.1536,0.1628,0.1675,0.139,0.11,0.0759,0.0265,-0.0035,-0.0059,-0.0142,-0.01,-0.0094,-0.0089,-0.0075,-0.0143,-0.0144,-0.0144,-0.0145,0,0,0.0633,0.073,0.0782,0.0956,0.106,0.1235,0.1345,0.1508,0.1617,0.1698,0.1688,0.1625,0.1216,0.0851,0.044,0.0157,0.0098,0.009,0.0154,0.0258,0.0267,-0.0017,0.0015,0,0,0,0,0]}],[{"header":{"parameterUnit":"m.s-1","parameterCategory":2,"la1":30.2991,"la2":30.254,"lo1":-89.0895,"lo2":-89.0444,"dy":0.0017,"dx":0.0017,"nx":28,"ny":28,"refTime":"2024-03-29T09:00:00:Z","depth":"4","parameterNumber":2,"parameterNumberName":"U-component_of_CURRENTS"},"data":[0,0,0,0,0,0,0,0,0,0,0,0,0,0,0,0,0,0,0,0,0,0,0,0,0,0,0,0,0,0,0,0,0,0,0,0,0,0,0,0,0,0,0,0,0,0,0,0,0,0,0,0,0,0,0,0,0,0,0.1785,0.1786,0,0.1847,0.1847,0.1848,0.1903,0.1904,0.1905,0.1906,0.1983,0.1984,0.1986,0,0,0,0,0,0,0,0,0,0,0,0,0,0.1719,0.172,0.1785,0.1786,0.1787,0.1846,0.1847,0.1848,0.1903,0.1904,0.1905,0.1906,0.1983,0.1984,0.1986,0,0,0,0,0,0,0,0,0,0,0,0,0,0.1759,0.172,0.1785,0.1823,0.1828,0.1846,0.1847,0.1848,0.1903,0.1904,0.1906,0.1907,0.1982,0.1984,0.1986,0.1972,0,0,0.1992,0.1992,0,0,0,0,0,0,0,0,0.1756,0.1761,0.1817,0.1821,0.1825,0.187,0.1852,0.1891,0.1903,0.1872,0.1906,0.1907,0.1947,0.1952,0.1958,0.1976,0.1979,0.1992,0.1993,0.1994,0.1994,0,0,0,0,0,0,0,0.1754,0.1759,0.1808,0.1818,0.1823,0.1839,0.1845,0.186,0.1901,0.1875,0.188,0.1889,0.195,0.1956,0.196,0.198,0.1992,0.1993,0.1995,0.1995,0.2103,0.2104,0,0,0,0,0,0,0.1748,0.1756,0.1806,0.181,0.1796,0.1839,0.1846,0.1853,0.19,0.1909,0.1888,0.1892,0.1952,0.1958,0.1963,0.2048,0.1994,0.1996,0.1997,0.2101,0.2103,0.2105,0,0,0,0,0,0,0.1747,0.1752,0.1803,0.1786,0.1794,0.1839,0.1846,0.1854,0.1899,0.191,0.1919,0.193,0.1953,0.196,0.2013,0.2048,0.1996,0.1998,0.2099,0.2102,0.2104,0.2156,0,0,0,0,0,0,0.1744,0.1751,0.1772,0.1785,0.1795,0.1837,0.1845,0.1854,0.1901,0.1907,0.1948,0.1954,0.1955,0.201,0.2015,0.205,0.2,0.2097,0.21,0.2103,0.2152,0.216,0.2166,0,0,0,0,0,0.1742,0.1756,0.1773,0.178,0.1816,0.1838,0.1845,0.1879,0.1902,0.1924,0.1959,0.1955,0.2034,0.2013,0.2018,0.2054,0.2095,0.2099,0.2103,0.2148,0.2158,0.2166,0,0,0,0,0,0,0.1739,0.1763,0.1782,0.1805,0.1833,0.1849,0.1878,0.1899,0.1943,0.1963,0.1974,0.1983,0.2042,0.2042,0.2019,0.2096,0.2065,0.207,0.2098,0.2107,0.2114,0.2125,0.2001,0,0,0,0,0,0.1748,0.1768,0.1791,0.1816,0.1832,0.1863,0.1885,0.1909,0.194,0.1963,0.1992,0.2025,0.2054,0.2077,0.2099,0.2139,0.2147,0.2168,0.2175,0.2181,0.2195,0.223,0.2242,0.2118,0.2118,0.2117,0,0,0.1755,0.1772,0.1786,0.1818,0.1845,0.1873,0.1881,0.1923,0.1961,0.1962,0.2034,0.2054,0.2071,0.2119,0.2145,0.2129,0.2223,0.2186,0.2191,0.2202,0.2236,0.2248,0.2258,0.212,0.212,0.2119,0,0,0.1764,0.1796,0.1814,0.1841,0.1888,0.1905,0.1926,0.1966,0.2004,0.2057,0.2076,0.2122,0.2162,0.2186,0.22,0.2261,0.226,0.2272,0.2319,0.2354,0.2364,0.2373,0.2405,0.2417,0.2276,0.2276,0.2276,0,0.1777,0.1798,0.1825,0.1852,0.1879,0.1924,0.1952,0.1995,0.2052,0.2081,0.2091,0.2171,0.2192,0.2249,0.228,0.2279,0.2298,0.2281,0.2363,0.2372,0.2381,0.2411,0.2423,0.2279,0.2278,0.2278,0.2278,0,0.1787,0.1824,0.184,0.1888,0.1922,0.1957,0.2009,0.2061,0.2107,0.2139,0.2216,0.2249,0.2293,0.2311,0.2319,0.2395,0.239,0.2366,0.2337,0.2396,0.2425,0.2436,0.2283,0.2282,0.2281,0.228,0,0,0.1762,0.1833,0.1844,0.1875,0.1946,0.1969,0.2042,0.2101,0.2158,0.2217,0.2281,0.2343,0.2369,0.2388,0.241,0.2452,0.2535,0.2448,0.2448,0.2475,0.2621,0.2444,0.244,0.2528,0.253,0.2532,0.2618,0,0.1767,0.1815,0.1852,0.1913,0.1942,0.2006,0.2069,0.2136,0.22,0.2278,0.2328,0.2402,0.2397,0.2441,0.2479,0.2531,0.2569,0.2515,0.2565,0.2567,0.2398,0.2448,0.2539,0.2627,0.263,0.2632,0.2633,0,0.1757,0.1794,0.1848,0.1927,0.1948,0.2,0.21,0.2166,0.2276,0.2329,0.24,0.2449,0.2544,0.2526,0.2627,0.2597,0.262,0.2644,0.2647,0.2471,0.241,0.2556,0.2654,0.2652,0.2651,0.2649,0.2648,0,0.1708,0.1787,0.1831,0.186,0.1959,0.2008,0.2074,0.2183,0.2248,0.2384,0.2442,0.2534,0.2608,0.2652,0.2706,0.2685,0.2801,0.2765,0.2621,0.261,0.2721,0.271,0.2824,0.2824,0.2824,0.2823,0.2823,0,0.1676,0.1718,0.1822,0.1848,0.1915,0.1999,0.209,0.2169,0.2294,0.236,0.2478,0.2536,0.2648,0.2717,0.2741,0.2715,0.2823,0.2641,0.2619,0.2742,0.2732,0.273,0.2718,0.2827,0.2826,0.2825,0.2825,0,0.1611,0.1681,0.1739,0.1853,0.1894,0.1949,0.2089,0.2147,0.2288,0.2383,0.2435,0.2577,0.2662,0.2741,0.283,0.2743,0.275,0.271,0.2858,0.2841,0.2531,0.2521,0.2555,0.2549,0.2545,0.2541,0.2537,0,0.1573,0.16,0.1727,0.1766,0.1825,0.1923,0.1983,0.2127,0.2182,0.2373,0.2395,0.2545,0.2615,0.2605,0.2694,0.2717,0.268,0.2659,0.2571,0.2527,0.2504,0.2501,0.2498,0.253,0.2529,0.2527,0.2526,0,0.1499,0.1566,0.1615,0.1696,0.1766,0.1825,0.1922,0.1947,0.2104,0.2255,0.2305,0.2353,0.244,0.2494,0.2534,0.2539,0.2657,0.2609,0.2617,0.2535,0.2497,0.2478,0.248,0.251,0.2512,0.2514,0.2515,0,0.1448,0.1462,0.154,0.1595,0.1673,0.1687,0.1761,0.182,0.1894,0.2096,0.2106,0.2266,0.2411,0.2402,0.2436,0.2432,0.2387,0.2291,0.2315,0.2334,0.2218,0.2134,0.2024,0,0,0,0,0,0.138,0.1377,0.1425,0.1463,0.1536,0.1579,0.1692,0.1769,0.1921,0.1902,0.1998,0.2068,0.2121,0.2206,0.2158,0.233,0.2392,0.226,0.2293,0.2419,0.2438,0.2319,0,0,0,0,0,0,0.1329,0.1368,0.1377,0.1338,0.1342,0.1396,0.1462,0.1573,0.1574,0.1747,0.1798,0.1927,0.2024,0.2129,0.2114,0.2137,0.2109,0.2363,0.2357,0.2409,0.2426,0.2441,0.2325,0,0,0,0,0]},{"header":{"parameterUnit":"m.s-1","parameterCategory":2,"la1":30.2991,"la2":30.254,"lo1":-89.0895,"lo2":-89.0444,"dy":0.0017,"dx":0.0017,"nx":28,"ny":28,"refTime":"2024-03-29T09:00:00:Z","depth":"4","parameterNumber":3,"parameterNumberName":"V-component_of_CURRENTS"},"data":[0,0,0,0,0,0,0,0,0,0,0,0,0,0,0,0,0,0,0,0,0,0,0,0,0,0,0,0,0,0,0,0,0,0,0,0,0,0,0,0,0,0,0,0,0,0,0,0,0,0,0,0,0,0,0,0,0,0,0.0068,0.0068,0,0.0037,0.0037,0.0036,0.0013,0.0013,0.0013,0.0012,-0.0038,-0.0039,-0.004,0,0,0,0,0,0,0,0,0,0,0,0,0,0.0063,0.0063,0.0068,0.0068,0.0067,0.0037,0.0037,0.0036,0.0013,0.0013,0.0013,0.0012,-0.0037,-0.0039,-0.0041,0,0,0,0,0,0,0,0,0,0,0,0,0,0.0051,0.0063,0.0068,0.0053,0.0052,0.0037,0.0037,0.0036,0.0013,0.0013,0.0012,0.0012,-0.0037,-0.0039,-0.0041,-0.0051,0,0,-0.0047,-0.0047,0,0,0,0,0,0,0,0,0.0051,0.0051,0.0056,0.0054,0.0053,0.003,0.0016,0.0007,0.0013,0.0026,0.0012,0.0012,-0.0016,-0.002,-0.0027,-0.0053,-0.0055,-0.0047,-0.0048,-0.0049,-0.0049,0,0,0,0,0,0,0,0.0052,0.0051,0.0054,0.0056,0.0054,0.0034,0.0032,0.0014,0.0004,0.0025,0.0023,0.0023,-0.0017,-0.0025,-0.0029,-0.0056,-0.0047,-0.0048,-0.005,-0.005,-0.0083,-0.0083,0,0,0,0,0,0,0.0062,0.0053,0.0055,0.0053,0.0054,0.0034,0.0032,0.0036,0.0005,0.0001,0.0023,0.0022,-0.0022,-0.0026,-0.003,-0.0025,-0.0049,-0.0051,-0.0052,-0.0083,-0.0083,-0.0083,0,0,0,0,0,0,0.0062,0.0063,0.0056,0.0053,0.0051,0.0035,0.0039,0.0036,0.0032,0.0004,-0.0001,0.0024,-0.0022,-0.0028,-0.0038,-0.0028,-0.0051,-0.0053,-0.0084,-0.0083,-0.0083,-0.0026,0,0,0,0,0,0,0.0062,0.0063,0.0069,0.0054,0.0052,0.0057,0.0039,0.0035,0.0033,0.0031,0.0003,-0.0002,-0.0023,-0.0035,-0.004,-0.0031,-0.0055,-0.0084,-0.0083,-0.0083,-0.0029,-0.0024,-0.002,0,0,0,0,0,0.0062,0.0074,0.007,0.007,0.0061,0.0057,0.0054,0.004,0.0033,0.0036,0.0018,-0.0001,-0.0035,-0.0036,-0.0042,-0.0033,-0.0084,-0.0084,-0.0083,-0.003,-0.0025,-0.002,0,0,0,0,0,0,0.0072,0.0072,0.0067,0.0078,0.0072,0.0054,0.0055,0.0046,0.0034,0.0032,0.0004,-0.0002,-0.0009,-0.0029,-0.0029,-0.0042,-0.0063,-0.0064,-0.0021,-0.0016,-0.0012,0.0004,-0.0056,0,0,0,0,0,0.0079,0.0089,0.0081,0.0089,0.0089,0.0073,0.007,0.0062,0.0049,0.0044,0.0025,0.0004,-0.0012,-0.0019,-0.0038,-0.0043,-0.0067,-0.0043,-0.0039,-0.0035,-0.0026,-0.0052,-0.0049,-0.008,-0.008,-0.008,0,0,0.0084,0.0086,0.009,0.0092,0.0085,0.0093,0.0071,0.0072,0.008,0.004,0.0043,0.0018,-0.0011,-0.0016,-0.0021,-0.003,-0.004,-0.0034,-0.0031,-0.0024,-0.0051,-0.0048,-0.0045,-0.008,-0.008,-0.008,0,0,0.0102,0.0102,0.0117,0.0118,0.0117,0.0109,0.0114,0.0102,0.0099,0.0097,0.0071,0.0057,0.003,0.0016,0.0004,0.002,-0.0018,0.0009,0.0045,0.002,0.0023,0.0025,-0.0005,-0.0006,0.0012,0.0012,0.0012,0,0.0107,0.013,0.012,0.0135,0.0142,0.0121,0.014,0.0134,0.0121,0.0122,0.0107,0.0071,0.0048,0.0043,0.0048,0.0031,0.0006,0.003,0.0027,0.0028,0.0029,-0.0002,-0.0004,0.0015,0.0015,0.0014,0.0014,0,0.0138,0.0157,0.0166,0.0182,0.0185,0.0198,0.0192,0.0197,0.0188,0.0175,0.0167,0.0132,0.0114,0.01,0.008,0.0077,0.0052,0.0035,0.0017,0.0036,0.0001,-0.0002,0.0019,0.0018,0.0017,0.0016,0,0,0.0149,0.0184,0.0187,0.0208,0.0214,0.0221,0.024,0.0248,0.0263,0.0238,0.025,0.0215,0.019,0.0175,0.0143,0.012,0.0104,0.0085,0.0083,0.0061,0.0043,0.0023,0.0018,0.0083,0.0083,0.0083,0.0014,0,0.0178,0.0226,0.0231,0.0271,0.0295,0.0291,0.0313,0.0315,0.0305,0.031,0.0272,0.0265,0.0219,0.0214,0.0184,0.0127,0.0099,0.0124,0.0022,0.002,0.0005,0.0015,0.0083,0.0011,0.0011,0.001,0.001,0,0.0208,0.024,0.029,0.0331,0.0341,0.036,0.0391,0.0409,0.0406,0.0399,0.0378,0.0341,0.0311,0.027,0.0179,0.0195,0.0128,0.0075,0.0071,0.0034,-0.0005,-0.0012,0.0004,0.0004,0.0005,0.0005,0.0005,0,0.0227,0.0278,0.0323,0.0337,0.0379,0.0404,0.0427,0.0436,0.0464,0.0458,0.0467,0.041,0.0393,0.0304,0.0193,0.0188,0.0085,0.0062,-0.0022,-0.0025,-0.0012,-0.0014,-0.0002,-0.0002,-0.0002,-0.0001,-0.0001,0,0.0257,0.0293,0.034,0.0367,0.0427,0.0441,0.0499,0.0511,0.0538,0.0573,0.0518,0.052,0.0401,0.0324,0.0216,0.0088,0.0099,-0.0012,-0.004,0.0012,0.0014,-0.0015,-0.0016,-0.0004,-0.0003,-0.0003,-0.0002,0,0.0269,0.0303,0.0359,0.0416,0.0441,0.0483,0.056,0.0599,0.0616,0.0663,0.0668,0.0607,0.0506,0.0371,0.0223,0.0125,0.0001,-0.005,0.0016,-0.0008,-0.0099,-0.0096,-0.0143,-0.0145,-0.0146,-0.0146,-0.0147,0,0.0279,0.0311,0.0391,0.0436,0.0467,0.0538,0.0594,0.0639,0.0681,0.0712,0.0732,0.0656,0.0594,0.0378,0.0223,0.0012,-0.0024,-0.0093,-0.0096,-0.0089,-0.0112,-0.0107,-0.0103,-0.0149,-0.0149,-0.0149,-0.015,0,0.0293,0.0322,0.0371,0.0466,0.0533,0.0614,0.0691,0.0731,0.0786,0.08,0.0792,0.0684,0.0564,0.0383,0.0216,0.0063,-0.0048,-0.0104,-0.0103,-0.0107,-0.0096,-0.0117,-0.0111,-0.0153,-0.0152,-0.0152,-0.0152,0,0.0299,0.0333,0.0403,0.0489,0.0574,0.0662,0.0709,0.0766,0.0814,0.0844,0.0835,0.0713,0.0642,0.0408,0.0256,0.0103,0.0058,0.0002,-0.0004,-0.0002,0.0053,0.0088,0.007,0,0,0,0,0,0.0305,0.0351,0.0423,0.0519,0.0604,0.0665,0.0759,0.0801,0.0851,0.0856,0.0853,0.0744,0.0528,0.0429,0.0274,0.0215,0.0015,0.0024,-0.0056,-0.0172,-0.0168,-0.0131,0,0,0,0,0,0,0.0311,0.0376,0.0417,0.0528,0.0599,0.0702,0.077,0.0812,0.0815,0.0839,0.0727,0.069,0.0475,0.0618,0.0266,0.0219,0.0143,-0.0073,-0.0077,-0.0174,-0.0171,-0.0167,-0.0128,0,0,0,0,0]}]]